TimeEST,TemperatureF,Dew PointF,Humidity,Sea Level PressureIn,VisibilityMPH,Wind Direction,Wind SpeedMPH,Gust SpeedMPH,PrecipitationIn,Events,Conditions,WindDirDegrees,DateUTC
12:54 AM,36.0,23.0,59,30.01,10.0,West,4.6,-,N/A,,Clear,280,2013-02-04 05:54:00
1:54 AM,36.0,21.9,57,30.03,10.0,Calm,Calm,-,N/A,,Clear,0,2013-02-04 06:54:00
2:54 AM,28.0,21.0,75,30.04,10.0,SSW,3.5,-,N/A,,Clear,200,2013-02-04 07:54:00
3:54 AM,25.0,21.0,85,30.05,10.0,Calm,Calm,-,N/A,,Clear,0,2013-02-04 08:54:00
5:54 AM,25.0,21.0,85,30.06,10.0,Calm,Calm,-,N/A,,Clear,0,2013-02-04 10:54:00
6:54 AM,27.0,23.0,85,30.08,10.0,Calm,Calm,-,N/A,,Clear,0,2013-02-04 11:54:00
7:54 AM,28.0,24.1,85,30.11,10.0,East,5.8,-,N/A,,Clear,80,2013-02-04 12:54:00
8:54 AM,33.1,25.0,72,30.14,10.0,Calm,Calm,-,N/A,,Clear,0,2013-02-04 13:54:00
9:54 AM,37.9,24.1,57,30.15,10.0,Calm,Calm,-,N/A,,Clear,0,2013-02-04 14:54:00
10:54 AM,42.1,21.0,43,30.15,10.0,Variable,3.5,-,N/A,,Clear,0,2013-02-04 15:54:00
11:54 AM,45.0,19.9,37,30.14,10.0,WSW,4.6,-,N/A,,Partly Cloudy,240,2013-02-04 16:54:00
12:54 PM,48.9,19.9,32,30.08,10.0,SSE,6.9,-,N/A,,Clear,150,2013-02-04 17:54:00
1:54 PM,50.0,21.0,32,30.06,10.0,South,6.9,-,N/A,,Clear,180,2013-02-04 18:54:00
2:54 PM,50.0,21.0,32,30.05,10.0,Calm,Calm,-,N/A,,Clear,0,2013-02-04 19:54:00
3:54 PM,48.9,21.9,35,30.04,10.0,South,5.8,-,N/A,,Clear,190,2013-02-04 20:54:00
4:54 PM,48.0,23.0,37,30.04,10.0,SSW,6.9,-,N/A,,Mostly Cloudy,200,2013-02-04 21:54:00
5:54 PM,46.0,24.1,42,30.04,10.0,SSW,3.5,-,N/A,,Mostly Cloudy,210,2013-02-04 22:54:00
6:54 PM,44.1,23.0,43,30.05,10.0,SSW,4.6,-,N/A,,Clear,200,2013-02-04 23:54:00
7:54 PM,43.0,24.1,47,30.04,10.0,SSW,3.5,-,N/A,,Clear,200,2013-02-05 00:54:00
8:54 PM,39.9,25.0,55,30.04,10.0,SSW,4.6,-,N/A,,Clear,210,2013-02-05 01:54:00
9:54 PM,41.0,26.1,55,30.04,10.0,SW,3.5,-,N/A,,Clear,220,2013-02-05 02:54:00
10:54 PM,42.1,26.1,53,30.04,10.0,Variable,3.5,-,N/A,,Scattered Clouds,0,2013-02-05 03:54:00
11:54 PM,42.1,26.1,53,30.01,10.0,SSW,4.6,-,N/A,,Clear,200,2013-02-05 04:54:00